Time,TemperatureF,DewpointF,PressureIn,WindDirection,WindDirectionDegrees,WindSpeedMPH,WindSpeedGustMPH,Humidity,HourlyPrecipIn,Conditions,Clouds,dailyrainin,SolarRadiationWatts/m^2,SoftwareType,DateUTC
2017-01-24 00:02:00,42.9,41.3,29.92,SSW,206,0.0,0.0,94,0.00,,,0.00,0.00,VWS V14.01,2017-01-24 08:02:00,
2017-01-24 00:07:00,42.8,41.2,29.92,SSW,206,0.0,0.0,94,0.00,,,0.00,0.00,VWS V14.01,2017-01-24 08:07:00,
2017-01-24 00:12:00,42.7,41.1,29.93,SSW,206,0.0,0.0,94,0.00,,,0.00,0.00,VWS V14.01,2017-01-24 08:12:00,
2017-01-24 00:17:00,42.7,41.1,29.93,SSW,206,0.0,0.0,94,0.00,,,0.00,0.00,VWS V14.01,2017-01-24 08:17:00,
2017-01-24 00:22:00,42.5,40.9,29.93,SSW,206,0.0,0.0,94,0.00,,,0.00,0.00,VWS V14.01,2017-01-24 08:22:00,
2017-01-24 00:27:00,42.4,40.8,29.93,SSW,206,0.0,0.0,94,0.00,,,0.00,0.00,VWS V14.01,2017-01-24 08:27:00,
2017-01-24 00:32:00,42.2,40.6,29.92,SSW,206,0.0,0.0,94,0.00,,,0.00,0.00,VWS V14.01,2017-01-24 08:32:00,
2017-01-24 00:37:00,42.3,40.7,29.92,SSW,206,0.0,0.0,94,0.00,,,0.00,0.00,VWS V14.01,2017-01-24 08:37:00,
2017-01-24 00:42:00,42.3,40.7,29.92,SSW,206,0.0,0.0,94,0.00,,,0.00,0.00,VWS V14.01,2017-01-24 08:42:00,
2017-01-24 00:47:00,42.3,40.7,29.92,SSW,206,0.0,0.0,94,0.00,,,0.00,0.00,VWS V14.01,2017-01-24 08:47:00,
2017-01-24 00:52:00,42.2,40.6,29.92,SSW,206,0.0,0.0,94,0.00,,,0.00,0.00,VWS V14.01,2017-01-24 08:52:00,
2017-01-24 00:57:00,42.1,40.5,29.92,SSW,206,0.0,0.0,94,0.00,,,0.00,0.00,VWS V14.01,2017-01-24 08:57:00,
2017-01-24 01:02:00,41.9,40.3,29.92,SSW,206,0.0,0.0,94,0.00,,,0.00,0.00,VWS V14.01,2017-01-24 09:02:00,
2017-01-24 01:07:00,41.8,40.2,29.92,SSW,206,0.0,0.0,94,0.00,,,0.00,0.00,VWS V14.01,2017-01-24 09:07:00,
2017-01-24 01:12:00,41.8,40.2,29.92,SSW,206,0.0,0.0,94,0.00,,,0.00,0.00,VWS V14.01,2017-01-24 09:12:00,
2017-01-24 01:14:00,41.8,40.2,29.92,SSW,206,0.0,0.0,94,0.00,,,0.00,0.00,VWS V14.01,2017-01-24 09:14:00,
2017-01-24 01:19:00,41.6,40.0,29.92,SSW,206,0.0,0.0,94,0.00,,,0.00,0.00,VWS V14.01,2017-01-24 09:19:00,
2017-01-24 01:24:00,41.4,39.8,29.92,SSW,206,0.0,0.0,94,0.00,,,0.00,0.00,VWS V14.01,2017-01-24 09:24:00,
2017-01-24 01:29:00,41.3,39.7,29.92,SSW,206,0.0,0.0,94,0.00,,,0.00,0.00,VWS V14.01,2017-01-24 09:29:00,
2017-01-24 01:34:00,41.3,39.7,29.93,SSW,206,0.0,0.0,94,0.00,,,0.00,0.00,VWS V14.01,2017-01-24 09:34:00,
2017-01-24 01:39:00,41.2,39.9,29.92,SSW,206,0.0,0.0,95,0.00,,,0.00,0.00,VWS V14.01,2017-01-24 09:39:00,
2017-01-24 01:44:00,41.1,39.5,29.92,SSW,206,0.0,0.0,94,0.00,,,0.00,0.00,VWS V14.01,2017-01-24 09:44:00,
2017-01-24 01:49:00,41.1,39.8,29.93,SSW,206,0.0,0.0,95,0.00,,,0.00,0.00,VWS V14.01,2017-01-24 09:49:00,
2017-01-24 01:54:00,41.1,39.8,29.93,SSW,206,0.0,0.0,95,0.00,,,0.00,0.00,VWS V14.01,2017-01-24 09:54:00,
2017-01-24 01:59:00,41.1,39.8,29.93,SSW,206,0.0,0.0,95,0.00,,,0.00,0.00,VWS V14.01,2017-01-24 09:59:00,
2017-01-24 02:04:00,41.1,39.8,29.93,SSW,206,0.0,0.0,95,0.00,,,0.00,0.00,VWS V14.01,2017-01-24 10:04:00,
2017-01-24 02:09:00,40.9,39.6,29.93,SSW,206,0.0,0.0,95,0.00,,,0.00,0.00,VWS V14.01,2017-01-24 10:09:00,
2017-01-24 02:14:00,40.8,39.5,29.93,SSW,206,0.0,0.0,95,0.00,,,0.00,0.00,VWS V14.01,2017-01-24 10:14:00,
2017-01-24 02:19:00,40.7,39.4,29.93,SSW,206,0.0,0.0,95,0.00,,,0.00,0.00,VWS V14.01,2017-01-24 10:19:00,
2017-01-24 02:24:00,40.7,39.4,29.93,SSW,206,0.0,0.0,95,0.00,,,0.00,0.00,VWS V14.01,2017-01-24 10:24:00,
2017-01-24 02:29:00,40.9,39.6,29.94,SSW,206,0.0,0.0,95,0.00,,,0.00,0.00,VWS V14.01,2017-01-24 10:29:00,
2017-01-24 02:34:00,41.0,39.7,29.93,SSW,206,0.0,0.0,95,0.00,,,0.00,0.00,VWS V14.01,2017-01-24 10:34:00,
2017-01-24 02:39:00,41.1,39.8,29.93,SSW,206,0.0,0.0,95,0.00,,,0.00,0.00,VWS V14.01,2017-01-24 10:39:00,
2017-01-24 02:45:00,41.1,39.8,29.94,SSW,206,0.0,0.0,95,0.00,,,0.00,0.00,VWS V14.01,2017-01-24 10:45:00,
2017-01-24 02:50:00,41.0,39.7,29.94,SSW,206,0.0,0.0,95,0.00,,,0.00,0.00,VWS V14.01,2017-01-24 10:50:00,
2017-01-24 02:54:00,41.2,39.9,29.94,SSW,206,0.0,1.0,95,0.00,,,0.00,0.00,VWS V14.01,2017-01-24 10:54:00,
2017-01-24 02:59:00,41.4,40.1,29.94,SSW,206,0.0,1.0,95,0.00,,,0.00,0.00,VWS V14.01,2017-01-24 10:59:00,
2017-01-24 03:04:00,41.5,40.2,29.94,SSW,206,0.0,0.0,95,0.00,,,0.00,0.00,VWS V14.01,2017-01-24 11:04:00,
2017-01-24 03:09:00,41.7,40.4,29.94,SSW,206,0.0,0.0,95,0.00,,,0.00,0.00,VWS V14.01,2017-01-24 11:09:00,
2017-01-24 03:14:00,41.8,40.5,29.94,SSW,206,0.0,0.0,95,0.00,,,0.00,0.00,VWS V14.01,2017-01-24 11:14:00,
2017-01-24 03:19:00,41.9,40.6,29.94,SSW,206,0.0,0.0,95,0.00,,,0.00,0.00,VWS V14.01,2017-01-24 11:19:00,
2017-01-24 03:24:00,42.1,40.8,29.94,SSW,206,0.0,0.0,95,0.00,,,0.00,0.00,VWS V14.01,2017-01-24 11:24:00,
2017-01-24 03:29:00,42.1,40.5,29.94,SSW,206,0.0,0.0,94,0.00,,,0.00,0.00,VWS V14.01,2017-01-24 11:29:00,
2017-01-24 03:34:00,42.2,40.6,29.94,SSW,206,0.0,1.0,94,0.00,,,0.00,0.00,VWS V14.01,2017-01-24 11:34:00,
2017-01-24 03:39:00,42.2,40.6,29.94,SSW,206,0.0,1.0,94,0.00,,,0.00,0.00,VWS V14.01,2017-01-24 11:39:00,
2017-01-24 03:44:00,42.3,40.7,29.94,SSW,206,0.0,1.0,94,0.00,,,0.00,0.00,VWS V14.01,2017-01-24 11:44:00,
2017-01-24 03:49:00,42.3,40.7,29.94,SSW,206,0.0,1.0,94,0.00,,,0.00,0.00,VWS V14.01,2017-01-24 11:49:00,
2017-01-24 03:54:00,42.4,40.5,29.94,SSW,206,0.0,0.0,93,0.00,,,0.00,0.00,VWS V14.01,2017-01-24 11:54:00,
2017-01-24 03:59:00,42.4,40.5,29.94,SSW,206,0.0,0.0,93,0.00,,,0.00,0.00,VWS V14.01,2017-01-24 11:59:00,
2017-01-24 04:04:00,42.5,40.6,29.94,SSW,206,0.0,0.0,93,0.00,,,0.00,0.00,VWS V14.01,2017-01-24 12:04:00,
2017-01-24 04:09:00,42.5,40.6,29.94,SSW,206,0.0,0.0,93,0.00,,,0.00,0.00,VWS V14.01,2017-01-24 12:09:00,
2017-01-24 04:14:00,42.6,40.7,29.94,SSW,206,0.0,0.0,93,0.00,,,0.00,0.00,VWS V14.01,2017-01-24 12:14:00,
2017-01-24 04:19:00,42.7,40.5,29.94,SSW,198,0.0,2.0,92,0.00,,,0.00,0.00,VWS V14.01,2017-01-24 12:19:00,
2017-01-24 04:24:00,42.8,40.6,29.94,SE,139,1.0,3.0,92,0.00,,,0.00,0.00,VWS V14.01,2017-01-24 12:24:00,
2017-01-24 04:29:00,42.9,40.5,29.94,SE,131,1.0,3.0,91,0.00,,,0.00,0.00,VWS V14.01,2017-01-24 12:29:00,
2017-01-24 04:34:00,42.9,40.5,29.94,SE,138,0.0,2.0,91,0.00,,,0.00,0.00,VWS V14.01,2017-01-24 12:34:00,
2017-01-24 04:39:00,42.9,40.5,29.95,SE,138,0.0,2.0,91,0.00,,,0.00,0.00,VWS V14.01,2017-01-24 12:39:00,
2017-01-24 04:44:00,42.8,40.1,29.95,SE,138,0.0,0.0,90,0.00,,,0.00,0.00,VWS V14.01,2017-01-24 12:44:00,
2017-01-24 04:49:00,42.8,40.1,29.95,SE,143,0.0,2.0,90,0.00,,,0.00,0.00,VWS V14.01,2017-01-24 12:49:00,
2017-01-24 04:54:00,42.7,40.0,29.95,SE,143,0.0,0.0,90,0.00,,,0.00,0.00,VWS V14.01,2017-01-24 12:54:00,
2017-01-24 04:59:00,42.7,40.0,29.95,SE,143,0.0,0.0,90,0.00,,,0.00,0.00,VWS V14.01,2017-01-24 12:59:00,
2017-01-24 05:04:00,42.6,39.9,29.95,SE,143,0.0,0.0,90,0.00,,,0.00,0.00,VWS V14.01,2017-01-24 13:04:00,
2017-01-24 05:09:00,42.5,39.8,29.95,SE,143,0.0,0.0,90,0.00,,,0.00,0.00,VWS V14.01,2017-01-24 13:09:00,
2017-01-24 05:14:00,42.4,39.7,29.95,SE,143,0.0,1.0,90,0.00,,,0.00,0.00,VWS V14.01,2017-01-24 13:14:00,
2017-01-24 05:19:00,42.2,39.5,29.95,SE,143,0.0,1.0,90,0.00,,,0.00,0.00,VWS V14.01,2017-01-24 13:19:00,
2017-01-24 05:24:00,42.1,39.4,29.95,SE,143,0.0,0.0,90,0.00,,,0.00,0.00,VWS V14.01,2017-01-24 13:24:00,
2017-01-24 05:29:00,41.9,39.2,29.95,SE,143,0.0,0.0,90,0.00,,,0.00,0.00,VWS V14.01,2017-01-24 13:29:00,
2017-01-24 05:34:00,41.7,39.0,29.95,SE,142,0.0,0.0,90,0.00,,,0.00,0.00,VWS V14.01,2017-01-24 13:34:00,
2017-01-24 05:39:00,41.5,38.8,29.95,SE,143,0.0,0.0,90,0.00,,,0.00,0.00,VWS V14.01,2017-01-24 13:39:00,
2017-01-24 05:44:00,41.4,38.7,29.96,SE,143,0.0,0.0,90,0.00,,,0.00,0.00,VWS V14.01,2017-01-24 13:44:00,
2017-01-24 05:49:00,41.2,38.5,29.96,SE,143,0.0,0.0,90,0.00,,,0.00,0.00,VWS V14.01,2017-01-24 13:49:00,
2017-01-24 05:54:00,41.0,38.6,29.96,SE,143,0.0,0.0,91,0.00,,,0.00,0.00,VWS V14.01,2017-01-24 13:54:00,
2017-01-24 05:59:00,40.9,38.5,29.96,SE,143,0.0,0.0,91,0.00,,,0.00,0.00,VWS V14.01,2017-01-24 13:59:00,
2017-01-24 06:04:00,40.8,38.4,29.96,SE,143,0.0,0.0,91,0.00,,,0.00,0.00,VWS V14.01,2017-01-24 14:04:00,
2017-01-24 06:09:00,40.8,38.7,29.96,SE,143,0.0,1.0,92,0.00,,,0.00,0.00,VWS V14.01,2017-01-24 14:09:00,
2017-01-24 06:14:00,40.9,38.8,29.96,SE,143,0.0,1.0,92,0.00,,,0.00,0.00,VWS V14.01,2017-01-24 14:14:00,
2017-01-24 06:19:00,41.0,38.9,29.97,SE,139,0.0,1.0,92,0.00,,,0.00,0.00,VWS V14.01,2017-01-24 14:19:00,
2017-01-24 06:24:00,41.0,38.9,29.97,SE,139,0.0,0.0,92,0.00,,,0.00,0.00,VWS V14.01,2017-01-24 14:24:00,
2017-01-24 06:29:00,41.0,38.9,29.97,SE,140,0.0,0.0,92,0.00,,,0.00,0.00,VWS V14.01,2017-01-24 14:29:00,
2017-01-24 06:34:00,40.9,38.8,29.97,SE,139,0.0,0.0,92,0.00,,,0.00,0.00,VWS V14.01,2017-01-24 14:34:00,
2017-01-24 06:39:00,40.8,38.4,29.97,SE,140,0.0,0.0,91,0.00,,,0.00,0.00,VWS V14.01,2017-01-24 14:39:00,
2017-01-24 06:45:00,40.6,38.2,29.97,SE,139,0.0,0.0,91,0.00,,,0.00,0.00,VWS V14.01,2017-01-24 14:45:00,
2017-01-24 06:50:00,40.5,38.4,29.97,SE,139,0.0,0.0,92,0.00,,,0.00,0.00,VWS V14.01,2017-01-24 14:50:00,
2017-01-24 06:55:00,40.4,38.0,29.97,SE,140,0.0,0.0,91,0.00,,,0.00,0.00,VWS V14.01,2017-01-24 14:55:00,
2017-01-24 07:00:00,40.3,37.9,29.97,SE,139,0.0,0.0,91,0.00,,,0.00,0.00,VWS V14.01,2017-01-24 15:00:00,
2017-01-24 07:05:00,40.1,38.0,29.98,SE,139,0.0,0.0,92,0.00,,,0.00,0.00,VWS V14.01,2017-01-24 15:05:00,
2017-01-24 07:10:00,40.2,38.1,29.98,SE,139,0.0,0.0,92,0.00,,,0.00,0.00,VWS V14.01,2017-01-24 15:10:00,
2017-01-24 07:15:00,40.3,38.2,29.98,SE,139,0.0,1.0,92,0.00,,,0.00,0.00,VWS V14.01,2017-01-24 15:15:00,
2017-01-24 07:20:00,40.4,38.3,29.98,SE,140,0.0,1.0,92,0.00,,,0.00,7.00,VWS V14.01,2017-01-24 15:20:00,
2017-01-24 07:25:00,40.5,38.4,29.98,SE,139,0.0,0.0,92,0.00,,,0.00,9.00,VWS V14.01,2017-01-24 15:25:00,
2017-01-24 07:30:00,40.5,38.4,29.98,SE,140,0.0,0.0,92,0.00,,,0.00,12.00,VWS V14.01,2017-01-24 15:30:00,
2017-01-24 07:35:00,40.4,38.3,29.98,SE,140,0.0,0.0,92,0.00,,,0.00,14.00,VWS V14.01,2017-01-24 15:35:00,
2017-01-24 07:40:00,40.3,38.2,29.99,SE,140,0.0,0.0,92,0.00,,,0.00,18.00,VWS V14.01,2017-01-24 15:40:00,
2017-01-24 07:45:00,40.4,38.3,29.99,SE,140,0.0,0.0,92,0.00,,,0.00,21.00,VWS V14.01,2017-01-24 15:45:00,
2017-01-24 07:50:00,40.6,38.7,29.99,SE,125,0.0,0.0,93,0.00,,,0.00,30.00,VWS V14.01,2017-01-24 15:50:00,
2017-01-24 07:55:00,41.0,39.1,29.99,SE,125,0.0,0.0,93,0.00,,,0.00,39.00,VWS V14.01,2017-01-24 15:55:00,
2017-01-24 08:00:00,41.5,39.6,29.99,SE,125,0.0,0.0,93,0.00,,,0.00,39.00,VWS V14.01,2017-01-24 16:00:00,
2017-01-24 08:05:00,41.9,39.8,29.99,SE,125,0.0,1.0,92,0.00,,,0.00,33.00,VWS V14.01,2017-01-24 16:05:00,
2017-01-24 08:10:00,42.4,40.0,30.00,ESE,123,0.0,0.0,91,0.00,,,0.00,32.00,VWS V14.01,2017-01-24 16:10:00,
2017-01-24 08:15:00,43.0,40.3,30.00,ESE,123,0.0,2.0,90,0.00,,,0.00,33.00,VWS V14.01,2017-01-24 16:15:00,
2017-01-24 08:20:00,43.5,40.8,30.00,ESE,121,0.0,0.0,90,0.00,,,0.00,35.00,VWS V14.01,2017-01-24 16:20:00,
2017-01-24 08:25:00,43.9,40.9,30.00,ESE,122,0.0,2.0,89,0.00,,,0.00,46.00,VWS V14.01,2017-01-24 16:25:00,
2017-01-24 08:30:00,44.1,41.1,30.00,East,97,0.0,0.0,89,0.00,,,0.00,76.00,VWS V14.01,2017-01-24 16:30:00,
2017-01-24 08:35:00,44.6,41.8,30.01,East,100,1.0,1.0,90,0.00,,,0.00,139.00,VWS V14.01,2017-01-24 16:35:00,
2017-01-24 08:40:00,45.3,42.3,30.01,ESE,102,0.0,0.0,89,0.00,,,0.00,197.00,VWS V14.01,2017-01-24 16:40:00,
2017-01-24 08:45:00,45.9,42.5,30.01,ESE,103,0.0,1.0,88,0.00,,,0.00,225.00,VWS V14.01,2017-01-24 16:45:00,
2017-01-24 08:50:00,46.2,42.5,30.02,ESE,110,1.0,2.0,87,0.00,,,0.00,246.00,VWS V14.01,2017-01-24 16:50:00,
2017-01-24 08:55:00,46.5,42.5,30.02,ESE,112,0.0,2.0,86,0.00,,,0.00,229.00,VWS V14.01,2017-01-24 16:55:00,
2017-01-24 09:00:00,46.7,42.7,30.02,ESE,112,0.0,0.0,86,0.00,,,0.00,278.00,VWS V14.01,2017-01-24 17:00:00,
2017-01-24 09:05:00,47.0,42.7,30.02,ESE,121,0.0,2.0,85,0.00,,,0.00,294.00,VWS V14.01,2017-01-24 17:05:00,
2017-01-24 09:10:00,47.2,42.3,30.02,East,85,0.0,0.0,83,0.00,,,0.00,218.00,VWS V14.01,2017-01-24 17:10:00,
2017-01-24 09:15:00,47.5,42.6,30.02,East,97,0.0,2.0,83,0.00,,,0.00,318.00,VWS V14.01,2017-01-24 17:15:00,
2017-01-24 09:20:00,47.8,42.6,30.02,ENE,69,0.0,2.0,82,0.00,,,0.00,332.00,VWS V14.01,2017-01-24 17:20:00,
2017-01-24 09:25:00,47.9,42.0,30.03,ENE,71,0.0,2.0,80,0.00,,,0.00,341.00,VWS V14.01,2017-01-24 17:25:00,
2017-01-24 09:30:00,48.0,42.1,30.03,NE,54,0.0,0.0,80,0.00,,,0.00,362.00,VWS V14.01,2017-01-24 17:30:00,
2017-01-24 09:35:00,48.4,43.2,30.03,NE,54,1.0,1.0,82,0.00,,,0.00,376.00,VWS V14.01,2017-01-24 17:35:00,
2017-01-24 09:40:00,48.9,42.7,30.03,ESE,107,0.0,1.0,79,0.00,,,0.00,390.00,VWS V14.01,2017-01-24 17:40:00,
2017-01-24 09:45:00,49.4,43.5,30.03,ENE,63,3.0,3.0,80,0.00,,,0.00,408.00,VWS V14.01,2017-01-24 17:45:00,
2017-01-24 09:50:00,49.4,42.5,30.04,SE,127,0.0,4.0,77,0.00,,,0.00,417.00,VWS V14.01,2017-01-24 17:50:00,
2017-01-24 09:55:00,49.3,42.7,30.04,ENE,58,0.0,4.0,78,0.00,,,0.00,429.00,VWS V14.01,2017-01-24 17:55:00,
2017-01-24 10:00:00,49.7,42.8,30.04,NE,50,0.0,0.0,77,0.00,,,0.00,455.00,VWS V14.01,2017-01-24 18:00:00,
2017-01-24 10:05:00,50.3,43.0,30.05,NE,35,1.0,4.0,76,0.00,,,0.00,475.00,VWS V14.01,2017-01-24 18:05:00,
2017-01-24 10:10:00,50.8,43.5,30.05,ENE,75,0.0,0.0,76,0.00,,,0.00,497.00,VWS V14.01,2017-01-24 18:10:00,
2017-01-24 10:15:00,51.7,44.4,30.05,NE,55,0.0,2.0,76,0.00,,,0.00,522.00,VWS V14.01,2017-01-24 18:15:00,
2017-01-24 10:20:00,52.0,44.0,30.05,SSE,150,0.0,1.0,74,0.00,,,0.00,489.00,VWS V14.01,2017-01-24 18:20:00,
2017-01-24 10:25:00,52.5,44.5,30.05,ESE,108,0.0,1.0,74,0.00,,,0.00,431.00,VWS V14.01,2017-01-24 18:25:00,
2017-01-24 10:31:00,52.8,44.4,30.05,SE,125,0.0,0.0,73,0.00,,,0.00,431.00,VWS V14.01,2017-01-24 18:31:00,
2017-01-24 10:36:00,53.2,44.8,30.06,East,81,0.0,1.0,73,0.00,,,0.00,436.00,VWS V14.01,2017-01-24 18:36:00,
2017-01-24 10:41:00,52.8,44.0,30.06,NE,44,0.0,5.0,72,0.00,,,0.00,522.00,VWS V14.01,2017-01-24 18:41:00,
2017-01-24 10:46:00,52.5,44.1,30.06,ENE,64,0.0,7.0,73,0.00,,,0.00,510.00,VWS V14.01,2017-01-24 18:46:00,
2017-01-24 10:51:00,52.4,45.1,30.06,ENE,59,5.0,5.0,76,0.00,,,0.00,531.00,VWS V14.01,2017-01-24 18:51:00,
2017-01-24 10:56:00,52.3,44.6,30.06,NE,50,0.0,7.0,75,0.00,,,0.00,529.00,VWS V14.01,2017-01-24 18:56:00,
2017-01-24 11:01:00,52.1,44.4,30.06,NE,45,4.0,12.0,75,0.00,,,0.00,540.00,VWS V14.01,2017-01-24 19:01:00,
2017-01-24 11:06:00,51.4,44.1,30.07,ENE,57,4.0,12.0,76,0.00,,,0.00,541.00,VWS V14.01,2017-01-24 19:06:00,
2017-01-24 11:11:00,51.3,43.7,30.07,NE,53,8.0,8.0,75,0.00,,,0.00,552.00,VWS V14.01,2017-01-24 19:11:00,
2017-01-24 11:16:00,51.2,44.2,30.06,NE,52,9.0,9.0,77,0.01,,,0.01,557.00,VWS V14.01,2017-01-24 19:16:00,
2017-01-24 11:21:00,51.2,44.6,30.07,NE,47,1.0,5.0,78,0.01,,,0.01,557.00,VWS V14.01,2017-01-24 19:21:00,
2017-01-24 11:26:00,51.3,44.0,30.06,ENE,64,0.0,6.0,76,0.01,,,0.01,559.00,VWS V14.01,2017-01-24 19:26:00,
2017-01-24 11:31:00,51.5,43.8,30.06,ENE,68,2.0,7.0,75,0.01,,,0.01,564.00,VWS V14.01,2017-01-24 19:31:00,
2017-01-24 11:36:00,51.6,43.6,30.06,ENE,73,5.0,10.0,74,0.01,,,0.01,568.00,VWS V14.01,2017-01-24 19:36:00,
2017-01-24 11:41:00,51.7,43.3,30.06,NE,42,0.0,5.0,73,0.01,,,0.01,571.00,VWS V14.01,2017-01-24 19:41:00,
2017-01-24 11:46:00,51.9,43.2,30.06,NE,35,1.0,9.0,72,0.01,,,0.01,575.00,VWS V14.01,2017-01-24 19:46:00,
2017-01-24 11:51:00,52.1,44.1,30.06,ENE,73,1.0,4.0,74,0.01,,,0.01,577.00,VWS V14.01,2017-01-24 19:51:00,
2017-01-24 11:56:00,52.2,43.5,30.06,East,89,5.0,8.0,72,0.01,,,0.01,580.00,VWS V14.01,2017-01-24 19:56:00,
2017-01-24 12:01:00,52.4,44.0,30.06,ENE,58,5.0,7.0,73,0.01,,,0.01,580.00,VWS V14.01,2017-01-24 20:01:00,
2017-01-24 12:06:00,52.7,43.6,30.06,ENE,67,7.0,9.0,71,0.01,,,0.01,584.00,VWS V14.01,2017-01-24 20:06:00,
2017-01-24 12:11:00,52.7,43.6,30.06,ENE,58,5.0,7.0,71,0.01,,,0.01,587.00,VWS V14.01,2017-01-24 20:11:00,
2017-01-24 12:16:00,52.8,43.3,30.06,NE,50,0.0,9.0,70,0.01,,,0.01,568.00,VWS V14.01,2017-01-24 20:16:00,
2017-01-24 12:21:00,52.9,43.0,30.06,NE,53,2.0,9.0,69,0.00,,,0.01,585.00,VWS V14.01,2017-01-24 20:21:00,
2017-01-24 12:26:00,53.2,43.7,30.06,ENE,74,0.0,9.0,70,0.00,,,0.01,584.00,VWS V14.01,2017-01-24 20:26:00,
2017-01-24 12:31:00,53.7,44.2,30.06,ENE,70,5.0,5.0,70,0.00,,,0.01,584.00,VWS V14.01,2017-01-24 20:31:00,
2017-01-24 12:36:00,54.0,44.1,30.06,East,89,0.0,7.0,69,0.00,,,0.01,580.00,VWS V14.01,2017-01-24 20:36:00,
2017-01-24 12:41:00,54.1,43.8,30.06,NE,52,1.0,6.0,68,0.00,,,0.01,580.00,VWS V14.01,2017-01-24 20:41:00,
2017-01-24 12:46:00,54.0,43.3,30.06,ENE,61,1.0,7.0,67,0.00,,,0.01,573.00,VWS V14.01,2017-01-24 20:46:00,
2017-01-24 12:51:00,54.3,44.4,30.06,NE,52,1.0,2.0,69,0.00,,,0.01,573.00,VWS V14.01,2017-01-24 20:51:00,
2017-01-24 12:56:00,54.8,44.5,30.05,ENE,72,0.0,5.0,68,0.00,,,0.01,573.00,VWS V14.01,2017-01-24 20:56:00,
2017-01-24 13:01:00,54.6,43.9,30.05,ENE,61,4.0,6.0,67,0.00,,,0.01,570.00,VWS V14.01,2017-01-24 21:01:00,
2017-01-24 13:06:00,54.7,44.4,30.06,ENE,69,0.0,7.0,68,0.00,,,0.01,564.00,VWS V14.01,2017-01-24 21:06:00,
2017-01-24 13:11:00,55.1,44.3,30.05,East,90,2.0,5.0,67,0.00,,,0.01,559.00,VWS V14.01,2017-01-24 21:11:00,
2017-01-24 13:16:00,55.3,44.2,30.05,East,83,0.0,5.0,66,0.00,,,0.01,555.00,VWS V14.01,2017-01-24 21:16:00,
2017-01-24 13:21:00,55.5,44.3,30.05,NE,49,0.0,4.0,66,0.00,,,0.01,550.00,VWS V14.01,2017-01-24 21:21:00,
2017-01-24 13:26:00,55.7,44.1,30.05,ENE,67,1.0,5.0,65,0.00,,,0.01,545.00,VWS V14.01,2017-01-24 21:26:00,
2017-01-24 13:31:00,56.1,43.7,30.05,ENE,59,0.0,4.0,63,0.00,,,0.01,536.00,VWS V14.01,2017-01-24 21:31:00,
2017-01-24 13:36:00,56.1,43.7,30.05,NW,324,0.0,7.0,63,0.00,,,0.01,533.00,VWS V14.01,2017-01-24 21:36:00,
2017-01-24 13:42:00,56.5,44.1,30.06,NE,56,1.0,7.0,63,0.00,,,0.01,526.00,VWS V14.01,2017-01-24 21:42:00,
2017-01-24 13:47:00,56.5,43.7,30.06,ESE,102,1.0,7.0,62,0.00,,,0.01,519.00,VWS V14.01,2017-01-24 21:47:00,
2017-01-24 13:52:00,56.7,44.3,30.06,ENE,60,0.0,3.0,63,0.00,,,0.01,512.00,VWS V14.01,2017-01-24 21:52:00,
2017-01-24 13:57:00,56.9,44.9,30.06,NE,45,1.0,5.0,64,0.00,,,0.01,503.00,VWS V14.01,2017-01-24 21:57:00,
2017-01-24 14:02:00,57.3,44.0,30.06,WNW,285,2.0,5.0,61,0.00,,,0.01,492.00,VWS V14.01,2017-01-24 22:02:00,
2017-01-24 14:07:00,57.4,43.6,30.06,ENE,60,2.0,7.0,60,0.00,,,0.01,487.00,VWS V14.01,2017-01-24 22:07:00,
2017-01-24 14:12:00,57.6,43.4,30.06,ENE,72,2.0,6.0,59,0.00,,,0.01,476.00,VWS V14.01,2017-01-24 22:12:00,
2017-01-24 14:17:00,57.2,43.9,30.06,NNE,30,2.0,6.0,61,0.00,,,0.01,469.00,VWS V14.01,2017-01-24 22:17:00,
2017-01-24 14:22:00,57.3,44.0,30.06,ENE,73,1.0,5.0,61,0.00,,,0.01,461.00,VWS V14.01,2017-01-24 22:22:00,
2017-01-24 14:27:00,57.1,41.6,30.06,ENE,65,4.0,6.0,56,0.00,,,0.01,452.00,VWS V14.01,2017-01-24 22:27:00,
2017-01-24 14:32:00,57.0,42.4,30.06,ENE,60,0.0,8.0,58,0.00,,,0.01,438.00,VWS V14.01,2017-01-24 22:32:00,
2017-01-24 14:37:00,57.2,43.5,30.06,East,93,4.0,8.0,60,0.00,,,0.01,427.00,VWS V14.01,2017-01-24 22:37:00,
2017-01-24 14:42:00,56.7,42.5,30.06,NNE,25,5.0,6.0,59,0.00,,,0.01,418.00,VWS V14.01,2017-01-24 22:42:00,
2017-01-24 14:47:00,56.7,42.5,30.06,ENE,64,0.0,7.0,59,0.00,,,0.01,406.00,VWS V14.01,2017-01-24 22:47:00,
2017-01-24 14:52:00,56.7,42.5,30.07,ENE,73,0.0,8.0,59,0.00,,,0.01,394.00,VWS V14.01,2017-01-24 22:52:00,
2017-01-24 14:57:00,56.9,41.8,30.07,NE,48,3.0,8.0,57,0.00,,,0.01,385.00,VWS V14.01,2017-01-24 22:57:00,
2017-01-24 15:02:00,56.9,41.4,30.07,ENE,66,3.0,6.0,56,0.00,,,0.01,371.00,VWS V14.01,2017-01-24 23:02:00,
2017-01-24 15:07:00,56.7,42.1,30.07,NNE,15,0.0,6.0,58,0.00,,,0.01,357.00,VWS V14.01,2017-01-24 23:07:00,
2017-01-24 15:12:00,56.9,41.8,30.07,East,83,4.0,7.0,57,0.00,,,0.01,346.00,VWS V14.01,2017-01-24 23:12:00,
2017-01-24 15:17:00,56.6,42.0,30.07,ESE,108,8.0,8.0,58,0.00,,,0.01,332.00,VWS V14.01,2017-01-24 23:17:00,
2017-01-24 15:22:00,56.3,42.2,30.07,NNE,15,0.0,5.0,59,0.00,,,0.01,322.00,VWS V14.01,2017-01-24 23:22:00,
2017-01-24 15:27:00,56.3,42.6,30.07,NE,51,2.0,7.0,60,0.00,,,0.01,302.00,VWS V14.01,2017-01-24 23:27:00,
2017-01-24 15:32:00,56.2,41.2,30.07,ENE,67,0.0,10.0,57,0.00,,,0.01,294.00,VWS V14.01,2017-01-24 23:32:00,
2017-01-24 15:37:00,56.1,41.5,30.07,ENE,68,3.0,10.0,58,0.00,,,0.01,278.00,VWS V14.01,2017-01-24 23:37:00,
2017-01-24 15:42:00,56.1,42.8,30.08,NE,47,1.0,3.0,61,0.00,,,0.01,262.00,VWS V14.01,2017-01-24 23:42:00,
2017-01-24 15:47:00,56.0,39.6,30.08,NE,47,8.0,8.0,54,0.00,,,0.01,251.00,VWS V14.01,2017-01-24 23:47:00,
2017-01-24 15:52:00,55.9,39.5,30.08,NE,55,0.0,5.0,54,0.00,,,0.01,236.00,VWS V14.01,2017-01-24 23:52:00,
2017-01-24 15:57:00,56.0,41.5,30.08,SSW,209,1.0,5.0,58,0.00,,,0.01,220.00,VWS V14.01,2017-01-24 23:57:00,
2017-01-24 16:02:00,55.9,39.5,30.08,NE,53,6.0,7.0,54,0.00,,,0.01,206.00,VWS V14.01,2017-01-25 00:02:00,
2017-01-24 16:07:00,55.9,40.5,30.09,ENE,72,1.0,7.0,56,0.00,,,0.01,190.00,VWS V14.01,2017-01-25 00:07:00,
2017-01-24 16:12:00,55.8,40.4,30.09,NE,42,0.0,5.0,56,0.00,,,0.01,178.00,VWS V14.01,2017-01-25 00:12:00,
2017-01-24 16:18:00,55.7,41.2,30.09,NE,40,6.0,6.0,58,0.00,,,0.01,155.00,VWS V14.01,2017-01-25 00:18:00,
2017-01-24 16:23:00,55.5,41.0,30.09,ENE,59,0.0,4.0,58,0.00,,,0.01,114.00,VWS V14.01,2017-01-25 00:23:00,